Home > Weather > Topeka > Past weeks

Flag for USA Past Weather in Topeka, Kansas, USA — Yesterday and Last 2 Weeks

Now
91 °F

Sunny.


Feels Like: 94 °F
Forecast: 69 / 93 °F
Wind: No wind

Location: Philip Billard Municipal Airport

Current Time: Jul 27, 2016 at 6:11:04 PM

Latest Report: Jul 27, 2016 at 4:53 PM


Visibility: 10 mi

Pressure: 29.89 "Hg

Humidity: 44%

Dew Point: 66 °F

Location of TopekaLocation

Past Weather in Topeka — Graph

°F

Topeka Temperature Yesterday

Maximum temperature yesterday: 89 °F (at 3:53 PM)
Minimum temperature yesterday: 66 °F (at 5:04 AM)
Average temperature yesterday: 78 °F

High & Low Weather Summary for the Past Weeks

 TemperatureHumidityPressure
High100 °F (Jul 22, 2:53 PM)100% (Jul 14, 5:53 AM)30.16 "Hg (Jul 14, 5:53 AM)
Low66 °F (Jul 15, 3:53 AM)35% (Jul 22, 3:53 PM)29.74 "Hg (Jul 13, 11:53 AM)
Average82 °F70%29.97 "Hg
* Reported Jul 12 4:53 PM — Jul 27 4:53 PM, Topeka, Weather by CustomWeather, © 2016

Note: Actual official high and low records may vary slightly from our data, if they occured in-between our weather recording intervals... More about our weather records

Advertising

Topeka Weather History for the Previous 24 Hours

Scroll right to see more
 ConditionsComfort  
Time TempWeatherWind HumidityBarometerVisibility
4:53 PM
Wed, Jul 27
91 °FSunny.No wind44%29.89 "Hg10 mi
3:53 PM91 °FSunny.5 mph47%29.92 "Hg10 mi
2:53 PM90 °FSunny.5 mph48%29.93 "Hg10 mi
1:53 PM89 °FSunny.7 mph50%29.95 "Hg10 mi
12:53 PM90 °FSunny.5 mph50%29.96 "Hg10 mi
11:53 AM87 °FSunny.No wind57%29.97 "Hg10 mi
10:53 AM84 °FSunny.5 mph63%29.96 "Hg10 mi
9:53 AM82 °FSunny.12 mph70%29.93 "Hg10 mi
8:53 AM78 °FSunny.5 mph76%29.94 "Hg10 mi
7:53 AM72 °FSunny.7 mph87%29.93 "Hg10 mi
6:53 AM68 °FClear.No wind90%29.97 "Hg10 mi
5:53 AM69 °FPassing clouds.6 mph93%29.99 "Hg9 mi
4:53 AM69 °FPassing clouds.No wind93%29.98 "Hg10 mi
3:53 AM70 °FPassing clouds.No wind90%29.97 "Hg10 mi
2:53 AM68 °FClear.3 mph90%29.96 "Hg10 mi
1:53 AM72 °FClear.No wind87%29.96 "Hg10 mi
12:53 AM71 °FClear.No wind93%29.97 "Hg10 mi
11:53 PM
Tue, Jul 26
74 °FClear.No wind85%29.96 "Hg10 mi
10:53 PM74 °FClear.No wind85%29.99 "Hg10 mi
9:53 PM78 °FClear.5 mph71%30.00 "Hg10 mi
8:53 PM79 °FSunny.5 mph69%29.96 "Hg10 mi
7:53 PM85 °FSunny.6 mph55%29.96 "Hg10 mi
6:53 PM88 °FSunny.6 mph50%29.95 "Hg10 mi
Weather by CustomWeather, © 2016

See weather overviewHow to use our weather pages